{"data":{"norad_id":62766,"intl_designator":"2025-015J","name":"STARLINK-33595","alt_names":[],"object_type":"PAYLOAD","status":"ACTIVE","operator":null,"country":"US","launch_date":"2025-01-21","launch_site_code":"AFWTR","launch_vehicle":null,"mission":null,"orbit_class":"UNKNOWN","rcs_meters":null,"size_class":null,"mass_kg":null,"dimensions":null,"purposes":["comms"],"wikipedia_slug":null,"has_3d_model":false,"image_url":null,"decayed_at":null,"tle_current":{"epoch":"2026-05-24T19:16:18.696288Z","epoch_age_seconds":85455,"freshness":"FRESH","line1":"1 62766U 25015J   26144.80299417  .00022171  00000+0  66523-3 0  9994","line2":"2 62766  53.1597 328.2693 0001577 100.4387 259.6794 15.34406141 76144","mean_motion":15.34406141,"eccentricity":0.0001577,"inclination_deg":53.1597,"raan_deg":328.2693,"arg_perigee_deg":100.4387,"mean_anomaly_deg":259.6794,"bstar":0.00066523,"rev_number":7614,"period_min":93.847382483853,"perigee_km":461.60619029433,"apogee_km":463.76378554932,"semimajor_km":6840.8219879218,"source":"CELESTRAK","updated_at":"2026-05-25T13:38:19.744688Z"}}}